Voltar ao catálogo

BREEZE-M R/B

AtivoHEO
NORAD 28944·ROCKET BODY·🇷🇺 Russia

Lançado Feb 28, 2006 de Baikonur Cosmodrome

Loading…

Próximas Passagens (próximas 24 horas)

TLE

AtualizadoSource: Space-Track

Época: Sep 10, 2026, 18:39 UTC

1 28944U 06006B   26253.77773986 -.00000072  00000-0  00000-0 0  9991
2 28944  50.7540  31.3918 4812518 172.1903 133.2166  5.07318023362234

Acompanhe BREEZE-M R/B em tempo real com AllMySat

Download on the App Store